Weather History for KBQK - December, 2012

Change the Weather History Date:

Thursday, December 6, 2012

  Actual Average (KSSI) Record (KSSI)
Temperature  
Mean Temperature 66 °F 56 °F  
Max Temperature 71 °F 65 °F 79 °F (1972)
Min Temperature 62 °F 48 °F 30 °F (1962)
Degree Days  
Heating Degree Days 0 9  
Month to date heating degree days 53  
Since 1 July heating degree days 233  
Cooling Degree Days 2 1  
Month to date cooling degree days 6  
Year to date cooling degree days 2621  
Growing Degree Days 16 (Base 50)    
Moisture  
Dew Point 61 °F    
Average Humidity 84    
Maximum Humidity 94    
Minimum Humidity 68    
Precipitation  
Precipitation 0.00 in 0.08 in 1.53 in (1979)
Month to date precipitation 0.48  
Year to date precipitation 42.84  
Snow  
Snow 0.00 in - 0.00 in ()
Month to date snowfall  
Since 1 July snowfall  
Snow Depth -    
Sea Level Pressure  
Sea Level Pressure 30.10 in    
Wind  
Wind Speed 10 mph (NE)    
Max Wind Speed 14 mph    
Max Gust Speed 22 mph    
Visibility 10 miles    
Events Thunderstorm    
T = Trace of Precipitation, MM = Missing Value Source: NWS Daily Summary

Daily Weather History Graph

Daily Weather History Graph

Search for Another Location

Airport or City:

Trip Planner

Search our weather history database for the weather conditions in past years. The results will help you decide how hot, cold, wet, or windy it might be!

Date:

Astronomy

Dec. 06, 2012 Rise Set
Actual Time 7:11 AM EST 5:23 PM EST
Civil Twilight 6:44 AM EST 5:49 PM EST
Nautical Twilight 6:14 AM EST 6:19 PM EST
Astronomical Twilight 5:45 AM EST 6:49 PM EST
Moon No Moon Rise 12:24 PM EST (12/6)
Length of Visible Light 11h 05m
Length of Day
10h 11m
Waning Gibbous, 49% of the Moon is Illuminated
Dec 6
Waning Gibbous
Dec 13
New
Dec 20
First Quarter
Dec 28
Full
Jan 4
Last Quarter

Hourly Weather History & Observations

Time (EST) Temp. Dew Point Humidity Pressure Visibility Wind Dir Wind Speed Gust Speed Precip Events Conditions
8:35 AM 66.2 °F 60.8 °F 83% 30.12 in 10.0 mi NE 6.9 mph - N/A   Overcast
8:55 AM 68.0 °F 60.8 °F 78% 30.13 in 10.0 mi NE 9.2 mph - N/A   Overcast
9:15 AM 68.0 °F 59.0 °F 73% 30.13 in 10.0 mi NE 9.2 mph - N/A   Overcast
9:35 AM 68.0 °F 59.0 °F 73% 30.13 in 10.0 mi NE 8.1 mph - N/A   Overcast
9:55 AM 69.8 °F 59.0 °F 68% 30.13 in 10.0 mi NE 8.1 mph - N/A   Overcast
10:15 AM 69.8 °F 60.8 °F 73% 30.14 in 10.0 mi NE 5.8 mph - N/A   Overcast
10:35 AM 69.8 °F 62.6 °F 78% 30.13 in 10.0 mi NNE 11.5 mph - N/A   Overcast
10:55 AM 69.8 °F 62.6 °F 78% 30.13 in 10.0 mi NNE 9.2 mph 16.1 mph N/A   Overcast
11:15 AM 69.8 °F 62.6 °F 78% 30.13 in 10.0 mi NNE 10.4 mph - N/A   Overcast
11:35 AM 69.8 °F 64.4 °F 83% 30.13 in 10.0 mi NE 10.4 mph - N/A   Overcast
11:55 AM 71.6 °F 64.4 °F 78% 30.12 in 10.0 mi NE 11.5 mph - N/A   Overcast
12:15 PM 69.8 °F 62.6 °F 78% 30.11 in 10.0 mi NE 11.5 mph 17.3 mph N/A   Overcast
12:35 PM 69.8 °F 62.6 °F 78% 30.10 in 10.0 mi ENE 10.4 mph 16.1 mph N/A Thunderstorm Overcast
12:55 PM 69.8 °F 62.6 °F 78% 30.09 in 10.0 mi NE 10.4 mph - N/A Thunderstorm Mostly Cloudy
1:15 PM 71.6 °F 62.6 °F 73% 30.09 in 10.0 mi ENE 9.2 mph - N/A   Overcast
1:35 PM 71.6 °F 62.6 °F 73% 30.08 in 10.0 mi NE 8.1 mph - N/A   Overcast
1:55 PM 69.8 °F 62.6 °F 78% 30.08 in 10.0 mi NNE 10.4 mph - N/A   Overcast
2:15 PM 69.8 °F 62.6 °F 78% 30.07 in 10.0 mi NNE 9.2 mph - N/A   Overcast
2:35 PM 69.8 °F 62.6 °F 78% 30.07 in 10.0 mi NE 10.4 mph 16.1 mph N/A   Overcast
2:55 PM 69.8 °F 62.6 °F 78% 30.07 in 10.0 mi NE 11.5 mph - N/A   Overcast
3:15 PM 68.0 °F 60.8 °F 78% 30.08 in 10.0 mi NNE 11.5 mph - N/A   Overcast
3:35 PM 68.0 °F 60.8 °F 78% 30.08 in 10.0 mi NNE 9.2 mph - N/A   Overcast
3:55 PM 66.2 °F 60.8 °F 83% 30.08 in 10.0 mi NNE 10.4 mph 16.1 mph N/A   Overcast
4:15 PM 64.4 °F 60.8 °F 88% 30.08 in 10.0 mi NE 11.5 mph 21.9 mph N/A   Overcast
4:35 PM 64.4 °F 60.8 °F 88% 30.08 in 10.0 mi NNE 10.4 mph - N/A   Overcast
4:55 PM 64.4 °F 60.8 °F 88% 30.08 in 10.0 mi NNE 10.4 mph - N/A   Overcast
5:15 PM 64.4 °F 60.8 °F 88% 30.08 in 10.0 mi NNE 8.1 mph 18.4 mph N/A   Overcast
5:35 PM 64.4 °F 60.8 °F 88% 30.08 in 10.0 mi NE 8.1 mph - N/A   Overcast
5:55 PM 62.6 °F 60.8 °F 94% 30.08 in 10.0 mi NE 8.1 mph 17.3 mph N/A   Overcast
6:15 PM 62.6 °F 60.8 °F 94% 30.09 in 10.0 mi ENE 11.5 mph 17.3 mph N/A   Overcast
6:35 PM 62.6 °F 60.8 °F 94% 30.09 in 10.0 mi NE 12.7 mph 17.3 mph N/A   Overcast
6:55 PM 62.6 °F 60.8 °F 94% 30.10 in 10.0 mi NE 10.4 mph - N/A   Overcast
7:15 PM 62.6 °F 60.8 °F 94% 30.10 in 10.0 mi NE 13.8 mph 19.6 mph N/A   Overcast
7:35 PM 62.6 °F 60.8 °F 94% 30.10 in 10.0 mi NE 9.2 mph - N/A   Overcast
7:55 PM 62.6 °F 60.8 °F 94% 30.09 in 10.0 mi NE 13.8 mph 17.3 mph N/A   Overcast
8:15 PM 62.6 °F 60.8 °F 94% 30.10 in 10.0 mi NE 9.2 mph - N/A   Overcast
8:35 PM 62.6 °F 60.8 °F 94% 30.10 in 10.0 mi NE 12.7 mph 18.4 mph N/A   Overcast
8:55 PM 62.6 °F 60.8 °F 94% 30.11 in 10.0 mi NE 12.7 mph 20.7 mph N/A Thunderstorm Overcast
9:15 PM 62.6 °F 60.8 °F 94% 30.10 in 10.0 mi NE 13.8 mph 18.4 mph N/A   Overcast
9:35 PM 62.6 °F 59.0 °F 88% 30.10 in 10.0 mi NE 13.8 mph 20.7 mph N/A   Overcast
9:55 PM 62.6 °F 59.0 °F 88% 30.09 in 10.0 mi NNE 12.7 mph 19.6 mph N/A   Overcast
10:15 PM 62.6 °F 59.0 °F 88% 30.08 in 10.0 mi NE 11.5 mph 18.4 mph N/A   Overcast
10:35 PM 62.6 °F 59.0 °F 88% 30.08 in 7.0 mi NE 11.5 mph - N/A   Overcast
10:55 PM 62.6 °F 59.0 °F 88% 30.09 in 10.0 mi NE 9.2 mph 17.3 mph N/A   Overcast
11:15 PM 62.6 °F 59.0 °F 88% 30.09 in 10.0 mi NE 11.5 mph - N/A   Overcast
11:35 PM 62.6 °F 59.0 °F 88% 30.08 in 10.0 mi NE 9.2 mph 16.1 mph N/A   Overcast
11:55 PM 62.6 °F 59.0 °F 88% 30.07 in 10.0 mi NE 10.4 mph 18.4 mph N/A   Overcast